Flag for U.S.A. Weather past 2 weeks in Louisville, Kentucky, U.S.A.

Now
83 °F

Cloudy.


Feels Like: 89 °F
Forecast: 76 / 92 °F
Wind: 9 mph from West

Location: Standiford Field

Current Time: Aug 22, 2014 at 11:52:11 AM

Latest Report: Aug 22, 2014 at 10:56 AM


Visibility: 10 mi

Pressure: 30.02 "Hg

Humidity: 74%

Dew point: 74 °F

Location of LouisvilleLocation

Historic Weather in Louisville — Graph

°F

Louisville temperature yesterday

Maximum temperature yesterday: 89 °F (at 4:56 PM)
Minimum temperature yesterday: 72 °F (at 4:56 AM)
Average temperature yesterday: 79 °F

Past Weeks' High & Low Weather Summary

 TemperatureHumidityPressure
High90 °F (Aug 20, 2:56 PM)97% (Aug 17, 11:56 PM)30.08 "Hg (Aug 17, 11:56 PM)
Low60 °F (Aug 13, 6:56 AM)37% (Aug 15, 9:56 PM)29.79 "Hg (Aug 19, 4:56 PM)
Average76 °F75%29.94 "Hg
* Reported Aug 7 10:56 AM — Aug 22 10:56 AM, Louisville, Weather by CustomWeather, © 2014

Note: Actual official high and low records may vary slightly from our data, if they occured in-between our weather recording intervals... More about our weather records

Advertising

Louisville weather history for previous 24 hours

 ConditionsComfort  
Time TempWeatherWind HumidityBarometerVisibility
10:56 AM
Aug 22
83 °FCloudy.9 mph74%30.02 "Hg10 mi
9:56 AM81 °FMore clouds than sun.9 mph77%30.01 "Hg10 mi
8:56 AM80 °FMore clouds than sun.6 mph79%30.00 "Hg10 mi
7:56 AM78 °FMostly cloudy.8 mph82%29.99 "Hg8 mi
6:56 AM78 °FPartly cloudy.8 mph82%29.97 "Hg10 mi
5:56 AM79 °FPassing clouds.7 mph79%29.97 "Hg10 mi
4:56 AM79 °FPassing clouds.8 mph79%29.97 "Hg10 mi
3:56 AM80 °FPassing clouds.7 mph76%29.96 "Hg10 mi
2:56 AM80 °FHigh level clouds.7 mph76%29.98 "Hg10 mi
1:56 AM79 °FHigh level clouds.7 mph79%30.01 "Hg10 mi
12:56 AM81 °FOvercast.6 mph74%30.03 "Hg10 mi
11:56 PM
Aug 21
79 °FPassing clouds.6 mph82%30.01 "Hg10 mi
10:56 PM80 °FPassing clouds.6 mph76%30.00 "Hg10 mi
9:56 PM83 °FPassing clouds.6 mph70%29.98 "Hg10 mi
8:56 PM83 °FScattered clouds.8 mph72%29.97 "Hg10 mi
7:56 PM86 °FScattered clouds.7 mph63%29.96 "Hg10 mi
6:56 PM88 °FScattered clouds.9 mph59%29.98 "Hg10 mi
5:56 PM89 °FBroken clouds.9 mph59%29.99 "Hg10 mi
4:56 PM89 °FBroken clouds.9 mph61%30.00 "Hg10 mi
3:56 PM86 °FBroken clouds.10 mph70%30.01 "Hg10 mi
2:56 PM85 °FPartly sunny.8 mph70%30.04 "Hg10 mi
1:56 PM83 °FMostly cloudy.12 mph74%30.06 "Hg10 mi
12:56 PM83 °FCloudy.10 mph72%30.06 "Hg10 mi
11:56 AM78 °FCloudy.7 mph84%30.06 "Hg10 mi
Weather by CustomWeather, © 2014

See weather overviewHow to use our weather pages